Location: Newcastle Observatory
(43.9158°N, 78.5831°W)
Time: 04:12:18
(UTC-04:00)

Amateur Radio Satellites - All Passes

Search period start: 01 October 2014 03:42
Search period end: 02 October 2014 03:42
Location: Newcastle Observatory, 43.9158°N, 78.5831°W

Satellite Date Start Highest point End Downlink Frequencies (MHz)
Time Altitude Azimuth
OPAL 01 Oct 03:46:44 03:50:14 19° 58° (ENE) 03:53:44 ?
Oscar 19 01 Oct 03:56:54 04:01:23 31° 294° (WNW) 04:05:49 437.125 CW, 437.150 USB
ISS 01 Oct 03:57:50 04:01:00 40° 23° (NNE) 04:04:10 145.800 FM
TMSAT-1 01 Oct 03:59:18 04:04:28 49° 99° (E) 04:09:35 436.925 FM
ITAMSAT 1 01 Oct 04:07:50 04:12:57 56° 289° (WNW) 04:18:02 435.822 SSB
Uribyol 2 01 Oct 04:08:48 04:13:52 51° 290° (WNW) 04:18:55 436.500 FM
Uosat F 01 Oct 04:31:51 04:34:55 16° 91° (E) 04:37:59 435.120 FM
Oscar 16 01 Oct 04:39:23 04:42:01 14° 302° (WNW) 04:44:39 437.025 USB, Beacon 2401.1428
SO-50 01 Oct 04:43:53 04:48:43 78° 237° (WSW) 04:53:35 436.795 FM
AO-27 01 Oct 04:46:53 04:51:10 26° 296° (WNW) 04:55:27 436.795 MHz FM
AO-7 01 Oct 04:48:19 04:55:44 35° 97° (E) 05:03:05 29.400 - 29.500 MHz
AO-Echo 01 Oct 04:48:52 04:52:28 20° 297° (WNW) 04:56:08 ?
Gurwin Techsat 1B 01 Oct 05:10:49 05:15:28 32° 294° (WNW) 05:20:06 435.225 FM
UOSAT-12 01 Oct 05:12:32 05:16:34 27° 42° (NE) 05:20:33 437.025 FM, 437.400 FM
JAS-1B 01 Oct 05:22:07 05:25:12 15° 304° (WNW) 05:28:20 435.800 - 435.900 CW/SSB
OPAL 01 Oct 05:23:22 05:28:34 69° 255° (WSW) 05:33:47 ?
RS-15 01 Oct 05:27:54 05:37:55 39° 327° (NNW) 05:48:01 29.354 - 29.394 USB, Beacon 29.352 USB
ISS 01 Oct 05:34:37 05:37:40 34° 221° (SW) 05:40:42 145.800 FM
TMSAT-1 01 Oct 05:39:53 05:44:04 24° 297° (WNW) 05:48:15 436.925 FM
MaSat-1 01 Oct 05:40:26 05:44:52 36° 110° (ESE) 05:49:07 437.345 MHz
JAS-2 01 Oct 06:08:13 06:14:09 32° 95° (E) 06:20:37 435.800 - 435.900 CW/SSB, 435.910 FM
Uosat F 01 Oct 06:09:09 06:14:09 64° 288° (WNW) 06:19:08 435.120 FM
STRAND 1 01 Oct 06:25:32 06:30:07 35° 67° (ENE) 06:34:45 ?
AO-7 01 Oct 06:40:47 06:48:50 57° 296° (WNW) 06:56:52 29.400 - 29.500 MHz
UOSAT-12 01 Oct 06:52:24 06:56:57 48° 241° (WSW) 07:01:25 437.025 FM, 437.400 FM
Hamsat 01 Oct 06:59:48 07:03:58 60° 100° (E) 07:08:05 145.90 MHz
MaSat-1 01 Oct 07:17:07 07:21:23 31° 306° (NW) 07:25:26 437.345 MHz
SO-67 01 Oct 07:37:28 07:40:01 19° 94° (E) 07:42:33 435.3500 MHz FM
RS-15 01 Oct 07:45:55 07:54:27 25° 1° (N) 08:03:07 29.354 - 29.394 USB, Beacon 29.352 USB
JAS-2 01 Oct 07:52:59 07:59:20 52° 290° (WNW) 08:06:23 435.800 - 435.900 CW/SSB, 435.910 FM
STRAND 1 01 Oct 08:04:53 08:09:20 30° 264° (W) 08:13:49 ?
AO-7 01 Oct 08:35:46 08:39:53 15° 318° (NW) 08:44:00 29.400 - 29.500 MHz
Hamsat 01 Oct 08:37:18 08:39:26 14° 298° (WNW) 08:41:33 145.90 MHz
Sapphire 01 Oct 09:02:20 09:06:04 19° 106° (ESE) 09:09:49 437.095 MHz 1200 baud AX-25 AFSK
HO-68 01 Oct 09:03:59 09:09:11 21° 91° (E) 09:14:21 435.675 MHz FM
SO-67 01 Oct 09:10:07 09:13:01 25° 290° (WNW) 09:15:54 435.3500 MHz FM
PCSat 01 Oct 09:26:36 09:31:24 34° 111° (ESE) 09:36:14 145.825 MHz
JAS-2 01 Oct 09:42:31 09:43:09 10° 309° (NW) 09:43:47 435.800 - 435.900 CW/SSB, 435.910 FM
UKube-1 01 Oct 09:48:19 09:50:50 15° 91° (E) 09:53:20 145.840 MHz, 145.915 MHz
RS-15 01 Oct 10:00:41 10:10:55 40° 35° (NE) 10:21:25 29.354 - 29.394 USB, Beacon 29.352 USB
ZACube-1 01 Oct 10:28:29 10:31:02 15° 89° (E) 10:33:33 437.345 MHz
Sapphire 01 Oct 10:43:35 10:48:57 65° 304° (NW) 10:54:22 437.095 MHz 1200 baud AX-25 AFSK
HO-68 01 Oct 10:50:24 10:57:36 77° 289° (WNW) 11:04:46 435.675 MHz FM
Oscar 11 01 Oct 10:53:23 10:57:41 60° 101° (E) 11:01:56 145.825 FM, Beacon 2401.500 USB
PCSat 01 Oct 11:09:39 11:14:43 40° 310° (NW) 11:19:50 145.825 MHz
FUNcube-1 01 Oct 11:18:06 11:22:32 47° 99° (E) 11:26:49 145.950 - 145.970 MHz USB
UKube-1 01 Oct 11:23:05 11:27:22 54° 288° (WNW) 11:31:37 145.840 MHz, 145.915 MHz
ZACube-1 01 Oct 12:03:20 12:07:51 59° 287° (WNW) 12:12:14 437.345 MHz
RS-15 01 Oct 12:13:14 12:24:20 77° 240° (WSW) 12:35:54 29.354 - 29.394 USB, Beacon 29.352 USB
JAS-1B 01 Oct 12:29:02 12:32:52 16° 57° (ENE) 12:36:26 435.800 - 435.900 CW/SSB
Sapphire 01 Oct 12:30:29 12:33:29 15° 325° (NW) 12:36:29 437.095 MHz 1200 baud AX-25 AFSK
Oscar 11 01 Oct 12:31:00 12:33:23 15° 298° (WNW) 12:35:45 145.825 FM, Beacon 2401.500 USB
Oscar 16 01 Oct 12:39:07 12:42:50 20° 61° (ENE) 12:46:34 437.025 USB, Beacon 2401.1428
HO-68 01 Oct 12:39:50 12:44:11 18° 309° (NW) 12:48:33 435.675 MHz FM
AO-Echo 01 Oct 12:49:41 12:50:30 10° 57° (ENE) 12:51:19 ?
AO-27 01 Oct 12:51:18 12:52:57 12° 55° (NE) 12:54:35 436.795 MHz FM
FUNcube-1 01 Oct 12:55:18 12:58:33 20° 296° (WNW) 13:01:45 145.950 - 145.970 MHz USB
PCSat 01 Oct 12:58:55 12:59:44 10° 332° (NNW) 13:00:33 145.825 MHz
Oscar 19 01 Oct 13:35:28 13:40:34 59° 72° (ENE) 13:45:41 437.125 CW, 437.150 USB
TMSAT-1 01 Oct 13:45:14 13:47:38 13° 57° (ENE) 13:50:02 436.925 FM
ITAMSAT 1 01 Oct 13:48:29 13:53:08 35° 67° (ENE) 13:57:48 435.822 SSB
Uribyol 2 01 Oct 13:49:10 13:53:54 37° 67° (ENE) 13:58:40 436.500 FM
Saudisat 1A 01 Oct 13:58:26 14:02:10 28° 115° (ESE) 14:05:56 436.775 MHz
AO-7 01 Oct 14:01:52 14:05:36 14° 41° (NE) 14:09:21 29.400 - 29.500 MHz
JAS-1B 01 Oct 14:15:15 14:22:50 83° 74° (ENE) 14:29:13 435.800 - 435.900 CW/SSB
Oscar 16 01 Oct 14:16:38 14:21:45 58° 259° (W) 14:26:54 437.025 USB, Beacon 2401.1428
AO-Echo 01 Oct 14:23:47 14:28:28 82° 75° (ENE) 14:33:13 ?
AO-27 01 Oct 14:26:24 14:31:34 76° 74° (ENE) 14:36:47 436.795 MHz FM
RS-15 01 Oct 14:27:54 14:34:51 19° 261° (W) 14:41:59 29.354 - 29.394 USB, Beacon 29.352 USB
Gurwin Techsat 1B 01 Oct 14:53:05 14:58:19 65° 72° (ENE) 15:03:36 435.225 FM
Oscar 19 01 Oct 15:16:46 15:20:18 18° 269° (W) 15:23:51 437.125 CW, 437.150 USB
TMSAT-1 01 Oct 15:21:27 15:26:44 85° 75° (ENE) 15:32:04 436.925 FM
ITAMSAT 1 01 Oct 15:28:03 15:32:37 32° 264° (W) 15:37:14 435.822 SSB
Uribyol 2 01 Oct 15:28:56 15:33:25 29° 265° (W) 15:37:57 436.500 FM
MaSat-1 01 Oct 15:30:30 15:33:56 89° 245° (WSW) 15:36:53 437.345 MHz
Saudisat 1A 01 Oct 15:37:32 15:41:37 37° 313° (NW) 15:45:44 436.775 MHz
Uosat F 01 Oct 15:46:09 15:50:18 27° 64° (ENE) 15:54:27 435.120 FM
AO-7 01 Oct 15:48:36 15:56:34 54° 63° (ENE) 16:04:32 29.400 - 29.500 MHz
AO-Echo 01 Oct 16:06:49 16:07:53 11° 272° (W) 16:08:58 ?
AO-27 01 Oct 16:09:01 16:11:40 14° 271° (W) 16:14:19 436.795 MHz FM
JAS-1B 01 Oct 16:09:19 16:13:57 17° 268° (W) 16:18:12 435.800 - 435.900 CW/SSB
KITSAT 1 01 Oct 16:10:29 16:16:05 21° 102° (ESE) 16:21:41 435.175 FM
JAS-2 01 Oct 16:26:15 16:28:25 13° 54° (NE) 16:30:38 435.800 - 435.900 CW/SSB, 435.910 FM
PCSat 01 Oct 16:32:07 16:32:40 10° 27° (NNE) 16:33:13 145.825 MHz
Gurwin Techsat 1B 01 Oct 16:35:22 16:38:46 17° 270° (W) 16:42:11 435.225 FM
TMSAT-1 01 Oct 17:05:09 17:07:20 13° 272° (W) 17:09:33 436.925 FM
Uosat F 01 Oct 17:24:14 17:28:54 39° 262° (W) 17:33:36 435.120 FM
OPAL 01 Oct 17:32:30 17:36:49 27° 97° (E) 17:41:04 ?
AO-7 01 Oct 17:42:05 17:49:35 37° 263° (W) 17:57:08 29.400 - 29.500 MHz
Sapphire 01 Oct 17:47:20 17:51:49 25° 44° (NE) 17:56:17 437.095 MHz 1200 baud AX-25 AFSK
Oscar 10/S400 01 Oct 17:48:09 18:06:16 49° 161° (SSE) 19:01:19 145.825 - 145.975 CW/USB, Beacon 145.810 USB
Hamsat 01 Oct 17:54:09 17:58:21 51° 73° (ENE) 18:02:32 145.90 MHz
KITSAT 1 01 Oct 18:02:21 18:10:27 87° 302° (WNW) 18:18:36 435.175 FM
JAS-2 01 Oct 18:07:23 18:12:33 86° 75° (ENE) 18:18:04 435.800 - 435.900 CW/SSB, 435.910 FM
PCSat 01 Oct 18:12:37 18:17:42 39° 50° (NE) 18:22:45 145.825 MHz
SO-50 01 Oct 19:01:00 19:04:36 24° 113° (ESE) 19:08:17 436.795 FM
OPAL 01 Oct 19:11:04 19:15:48 39° 294° (WNW) 19:20:27 ?
Sapphire 01 Oct 19:30:18 19:35:39 60° 244° (WSW) 19:40:58 437.095 MHz 1200 baud AX-25 AFSK
Hamsat 01 Oct 19:32:01 19:34:35 15° 269° (W) 19:37:10 145.90 MHz
HO-68 01 Oct 19:35:12 19:40:09 21° 53° (NE) 19:45:06 435.675 MHz FM
SO-67 01 Oct 19:43:29 19:46:54 63° 259° (W) 19:50:20 435.3500 MHz FM
PCSat 01 Oct 19:56:11 20:01:03 35° 249° (WSW) 20:05:54 145.825 MHz
JAS-2 01 Oct 19:57:07 19:58:37 11° 275° (W) 20:00:08 435.800 - 435.900 CW/SSB, 435.910 FM
KITSAT 1 01 Oct 20:00:18 20:07:00 28° 326° (NW) 20:13:44 435.175 FM
STRAND 1 01 Oct 20:13:08 20:18:19 82° 104° (ESE) 20:23:28 ?
SO-50 01 Oct 20:40:36 20:44:54 43° 312° (NW) 20:49:21 436.795 FM
UKube-1 01 Oct 20:45:25 20:48:11 17° 62° (ENE) 20:50:58 145.840 MHz, 145.915 MHz
UOSAT-12 01 Oct 21:04:44 21:08:58 37° 116° (ESE) 21:13:17 437.025 FM, 437.400 FM
HO-68 01 Oct 21:19:47 21:26:57 89° 253° (WSW) 21:34:09 435.675 MHz FM
ZACube-1 01 Oct 21:26:33 21:29:18 16° 62° (ENE) 21:32:04 437.345 MHz
Oscar 11 01 Oct 21:49:31 21:53:47 56° 73° (ENE) 21:58:04 145.825 FM, Beacon 2401.500 USB
STRAND 1 01 Oct 21:54:01 21:56:50 15° 302° (WNW) 21:59:39 ?
KITSAT 1 01 Oct 22:01:33 22:05:45 15° 355° (N) 22:09:57 435.175 FM
FUNcube-1 01 Oct 22:15:29 22:19:49 45° 71° (ENE) 22:24:14 145.950 - 145.970 MHz USB
ISS 01 Oct 22:17:20 22:20:24 35° 140° (SE) 22:23:28 145.800 FM
UKube-1 01 Oct 22:19:46 22:23:59 52° 260° (W) 22:28:15 145.840 MHz, 145.915 MHz
Saudisat 1A 01 Oct 22:23:14 22:27:21 36° 47° (NE) 22:31:26 436.775 MHz
SO-50 01 Oct 22:25:40 22:26:43 11° 334° (NNW) 22:27:46 436.795 FM
UOSAT-12 01 Oct 22:44:57 22:49:09 32° 315° (NW) 22:53:26 437.025 FM, 437.400 FM
ZACube-1 01 Oct 23:00:40 23:05:10 63° 259° (W) 23:09:47 437.345 MHz
HO-68 01 Oct 23:11:18 23:15:35 17° 271° (W) 23:19:54 435.675 MHz FM
Oscar 11 01 Oct 23:27:55 23:30:19 14° 270° (W) 23:32:43 145.825 FM, Beacon 2401.500 USB
FUNcube-1 01 Oct 23:53:08 23:56:26 20° 268° (W) 23:59:47 145.950 - 145.970 MHz USB
ISS 01 Oct 23:53:54 23:57:04 40° 337° (NNW) 00:00:14 145.800 FM
KITSAT 1 01 Oct 23:59:05 00:04:54 21° 26° (NNE) 00:10:42 435.175 FM
Saudisat 1A 02 Oct 00:03:01 00:06:49 28° 245° (WSW) 00:10:35 436.775 MHz
RS-15 02 Oct 00:34:53 00:38:41 12° 94° (E) 00:42:28 29.354 - 29.394 USB, Beacon 29.352 USB
ISS 02 Oct 01:31:45 01:34:23 21° 357° (N) 01:37:00 145.800 FM
Oscar 19 02 Oct 01:46:44 01:50:17 19° 91° (E) 01:53:48 437.125 CW, 437.150 USB
KITSAT 1 02 Oct 01:54:13 02:02:12 59° 51° (NE) 02:10:08 435.175 FM
JAS-1B 02 Oct 01:59:28 02:02:55 16° 91° (E) 02:06:30 435.800 - 435.900 CW/SSB
Uribyol 2 02 Oct 02:02:47 02:04:22 11° 87° (E) 02:05:56 436.500 FM
ITAMSAT 1 02 Oct 02:02:57 02:03:38 10° 87° (E) 02:04:19 435.822 SSB
Oscar 16 02 Oct 02:26:59 02:31:56 44° 99° (E) 02:36:49 437.025 USB, Beacon 2401.1428
AO-Echo 02 Oct 02:29:40 02:33:46 24° 94° (E) 02:37:55 ?
RS-15 02 Oct 02:37:48 02:48:35 63° 116° (ESE) 02:59:15 29.354 - 29.394 USB, Beacon 29.352 USB
AO-27 02 Oct 02:38:39 02:42:54 24° 94° (E) 02:47:06 436.795 MHz FM
Gurwin Techsat 1B 02 Oct 03:08:33 03:12:46 23° 93° (E) 03:16:56 435.225 FM
ISS 02 Oct 03:08:46 03:11:47 30° 18° (NNE) 03:14:46 145.800 FM
Oscar 19 02 Oct 03:24:57 03:30:00 57° 289° (WNW) 03:35:00 437.125 CW, 437.150 USB
SO-50 02 Oct 03:30:17 03:34:45 37° 47° (NE) 03:39:16 436.795 FM
